| time (UTC) | temp F | wind direction | speed knots | gust knots | rain 1hr in | rain 24hr in | rain mn in | humidity % | barometer mb |
| 20260503035801 | 57 | 166 | 2.6 | 4.3 | 0.00 | 0.50 | 0.01 | 99 | 1009.8 |
| 20260503035300 | 57 | 133 | 2.6 | 4.3 | 0.00 | 0.50 | 0.01 | 99 | 1009.8 |
| 20260503034800 | 57 | 125 | 1.7 | 4.3 | 0.00 | 0.50 | 0.01 | 100 | 1009.8 |
| 20260503034301 | 57 | 41 | 1.7 | 3.5 | 0.00 | 0.50 | 0.01 | 100 | 1009.8 |
| 20260503033801 | 57 | 116 | 0.9 | 3.5 | 0.00 | 0.50 | 0.01 | 100 | 1010.0 |
| 20260503033301 | 57 | 111 | 1.7 | 2.6 | 0.00 | 0.50 | 0.01 | 99 | 1010.2 |
| 20260503032801 | 57 | 145 | 1.7 | 2.6 | 0.00 | 0.50 | 0.01 | 99 | 1010.2 |
| 20260503032300 | 57 | 141 | 1.7 | 3.5 | 0.00 | 0.50 | 0.01 | 99 | 1010.4 |
| 20260503031801 | 57 | 134 | 1.7 | 3.5 | 0.00 | 0.50 | 0.01 | 100 | 1010.5 |
| 20260503031301 | 57 | 115 | 0.9 | 2.6 | 0.00 | 0.50 | 0.01 | 100 | 1010.4 |
| 20260503031044 | 57 | 147 | 0.9 | 2.6 | 0.00 | 0.50 | 0.01 | 99 | 1010.7 |
| 20260503030300 | 57 | 141 | 1.7 | 2.6 | 0.00 | 0.50 | 0.01 | 100 | 1010.8 |
| 20260503025759 | 57 | 146 | 1.7 | 2.6 | 0.00 | 0.50 | 0.01 | 100 | 1010.9 |
| 20260503025301 | 57 | 128 | 1.7 | 3.5 | 0.00 | 0.50 | 0.01 | 99 | 1010.9 |
| 20260503024759 | 57 | 150 | 1.7 | 5.2 | 0.00 | 0.50 | 0.01 | 99 | 1010.9 |
| 20260503024541 | 57 | 200 | 1.7 | 5.2 | 0.00 | 0.50 | 0.01 | 99 | 1011.0 |
| 20260503023758 | 57 | 209 | 1.7 | 3.5 | 0.00 | 0.50 | 0.01 | 99 | 1011.2 |
| 20260503023258 | 57 | 0 | 0.9 | 2.6 | 0.00 | 0.50 | 0.01 | 99 | 1011.1 |
| 20260503023117 | 57 | 181 | 1.7 | 3.5 | 0.00 | 0.50 | 0.01 | 99 | 1011.2 |
| 20260503022812 | 57 | 264 | 1.7 | 3.5 | 0.00 | 0.50 | 0.01 | 99 | 1011.1 |
| 20260503021759 | 57 | 167 | 0.9 | 2.6 | 0.00 | 0.50 | 0.01 | 99 | 1011.1 |
| 20260503021259 | 57 | 0 | 1.7 | 2.6 | 0.00 | 0.50 | 0.01 | 99 | 1011.1 |
| 20260503020759 | 57 | 187 | 1.7 | 2.6 | 0.00 | 0.50 | 0.01 | 99 | 1011.1 |
| 20260503020539 | 57 | 157 | 1.7 | 3.5 | 0.00 | 0.50 | 0.01 | 98 | 1011.1 |
| 20260503015757 | 57 | 145 | 1.7 | 4.3 | 0.00 | 0.50 | 0.01 | 98 | 1011.1 |
| 20260503015259 | 57 | 215 | 2.6 | 4.3 | 0.00 | 0.50 | 0.01 | 98 | 1011.2 |
| 20260503014754 | 57 | 167 | 2.6 | 6.1 | 0.00 | 0.50 | 0.01 | 98 | 1011.1 |
| 20260503014254 | 57 | 165 | 3.5 | 6.1 | 0.00 | 0.50 | 0.01 | 99 | 1011.1 |
| 20260503013754 | 57 | 130 | 3.5 | 7.0 | 0.00 | 0.50 | 0.01 | 99 | 1010.9 |
| 20260503013254 | 57 | 122 | 3.5 | 7.0 | 0.00 | 0.50 | 0.01 | 98 | 1010.9 |
| 20260503012754 | 56 | 129 | 2.6 | 7.0 | 0.00 | 0.50 | 0.01 | 99 | 1010.9 |
| 20260503012254 | 56 | 153 | 1.7 | 3.5 | 0.00 | 0.50 | 0.01 | 99 | 1010.9 |
| 20260503011754 | 56 | 138 | 1.7 | 3.5 | 0.00 | 0.50 | 0.01 | 99 | 1011.0 |
| 20260503011254 | 56 | 153 | 1.7 | 3.5 | 0.00 | 0.50 | 0.01 | 99 | 1011.0 |
| 20260503010754 | 56 | 161 | 1.7 | 4.3 | 0.00 | 0.50 | 0.01 | 99 | 1010.9 |
| 20260503010301 | 56 | 188 | 1.7 | 4.3 | 0.00 | 0.50 | 0.01 | 99 | 1010.9 |
| 20260503005758 | 56 | 116 | 1.7 | 4.3 | 0.00 | 0.50 | 0.01 | 99 | 1011.0 |
| 20260503005614 | 56 | 158 | 1.7 | 4.3 | 0.00 | 0.50 | 0.01 | 99 | 1011.1 |
| 20260503005317 | 56 | 118 | 1.7 | 4.3 | 0.00 | 0.50 | 0.01 | 99 | 1011.0 |
| 20260503004527 | 56 | 136 | 1.7 | 4.3 | 0.00 | 0.50 | 0.01 | 99 | 1011.0 |
| 20260503004039 | 56 | 42 | 1.7 | 3.5 | 0.00 | 0.50 | 0.01 | 98 | 1011.1 |
| 20260503003252 | 56 | 45 | 1.7 | 4.3 | 0.00 | 0.50 | 0.01 | 98 | 1011.1 |
| 20260503002748 | 56 | 43 | 1.7 | 4.3 | 0.00 | 0.50 | 0.01 | 98 | 1011.2 |
| 20260503002250 | 56 | 130 | 1.7 | 6.1 | 0.00 | 0.50 | 0.01 | 98 | 1011.2 |
| 20260503001747 | 56 | 14 | 2.6 | 6.1 | 0.00 | 0.50 | 0.01 | 97 | 1011.2 |
| 20260503001524 | 56 | 122 | 2.6 | 5.2 | 0.00 | 0.50 | 0.01 | 97 | 1011.2 |
| 20260503000745 | 56 | 114 | 2.6 | 5.2 | 0.00 | 0.50 | 0.01 | 98 | 1011.2 |
| 20260503000245 | 57 | 124 | 1.7 | 5.2 | 0.00 | 0.50 | 0.01 | 98 | 1011.4 |
| 20260502235743 | 57 | 134 | 1.7 | 5.2 | 0.00 | 0.50 | 0.01 | 97 | 1011.5 |
| 20260502235243 | 57 | 97 | 1.7 | 4.3 | 0.00 | 0.50 | 0.01 | 98 | 1011.5 |
| 20260502234743 | 57 | 112 | 1.7 | 4.3 | 0.00 | 0.50 | 0.01 | 98 | 1011.7 |
| 20260502234243 | 56 | 162 | 1.7 | 4.3 | 0.00 | 0.50 | 0.01 | 98 | 1011.7 |
| 20260502233740 | 56 | 73 | 1.7 | 3.5 | 0.00 | 0.50 | 0.01 | 98 | 1011.9 |
| 20260502233240 | 56 | 148 | 1.7 | 5.2 | 0.00 | 0.50 | 0.01 | 98 | 1011.9 |
| 20260502232741 | 56 | 33 | 1.7 | 5.2 | 0.00 | 0.50 | 0.01 | 98 | 1011.8 |
| 20260502232241 | 57 | 119 | 2.6 | 5.2 | 0.00 | 0.50 | 0.01 | 98 | 1011.9 |
| 20260502231742 | 57 | 137 | 2.6 | 5.2 | 0.00 | 0.50 | 0.01 | 98 | 1011.8 |
| 20260502231242 | 57 | 95 | 1.7 | 5.2 | 0.00 | 0.50 | 0.01 | 98 | 1011.8 |
| 20260502230743 | 57 | 149 | 1.7 | 5.2 | 0.00 | 0.50 | 0.01 | 98 | 1011.9 |
| 20260502230534 | 57 | 339 | 1.7 | 5.2 | 0.00 | 0.50 | 0.01 | 97 | 1011.8 |
| 20260502225741 | 56 | 165 | 1.7 | 5.2 | 0.01 | 0.50 | 0.01 | 98 | 1012.0 |
| 20260502225242 | 56 | 83 | 1.7 | 5.2 | 0.04 | 0.50 | 0.01 | 98 | 1012.0 |
| 20260502224741 | 56 | 68 | 1.7 | 5.2 | 0.07 | 0.50 | 0.01 | 98 | 1012.1 |
| 20260502224238 | 56 | 86 | 1.7 | 5.2 | 0.07 | 0.50 | 0.01 | 98 | 1012.1 |
| 20260502223736 | 56 | 140 | 2.6 | 6.1 | 0.09 | 0.50 | 0.01 | 99 | 1012.2 |
| 20260502223232 | 56 | 116 | 3.5 | 7.8 | 0.10 | 0.50 | 0.01 | 98 | 1012.1 |
| 20260502222730 | 56 | 58 | 2.6 | 7.8 | 0.13 | 0.50 | 0.01 | 98 | 1012.1 |
| 20260502222229 | 56 | 89 | 1.7 | 3.5 | 0.19 | 0.50 | 0.01 | 99 | 1012.2 |
| 20260502221730 | 56 | 121 | 1.7 | 6.1 | 0.24 | 0.50 | 0.01 | 99 | 1012.2 |
| 20260502221521 | 56 | 77 | 2.6 | 6.1 | 0.31 | 0.50 | 0.01 | 99 | 1012.3 |
| 20260502220730 | 56 | 120 | 3.5 | 11.3 | 0.43 | 0.50 | 0.01 | 99 | 1012.4 |
| 20260502220507 | 56 | 84 | 6.1 | 11.3 | 0.50 | 0.50 | 0.00 | 99 | 1012.5 |
| 20260502215729 | 56 | 34 | 7.8 | 11.3 | 0.49 | 0.49 | 0.49 | 99 | 1012.2 |
| 20260502215229 | 56 | 28 | 7.0 | 11.3 | 0.46 | 0.46 | 0.46 | 99 | 1012.1 |
| 20260502215006 | 56 | 25 | 5.2 | 9.6 | 0.44 | 0.44 | 0.43 | 99 | 1012.6 |
| 20260502214228 | 56 | 29 | 4.3 | 6.1 | 0.43 | 0.43 | 0.43 | 99 | 1013.1 |
| 20260502213729 | 56 | 23 | 3.5 | 6.1 | 0.42 | 0.42 | 0.42 | 98 | 1013.4 |
| 20260502213230 | 56 | 20 | 2.6 | 5.2 | 0.40 | 0.40 | 0.39 | 96 | 1013.7 |
| 20260502212730 | 56 | 0 | 1.7 | 4.3 | 0.37 | 0.37 | 0.36 | 96 | 1014.1 |
| 20260502212229 | 57 | 267 | 4.3 | 13.0 | 0.32 | 0.32 | 0.31 | 95 | 1014.0 |
| 20260502211728 | 58 | 265 | 6.1 | 13.0 | 0.26 | 0.26 | 0.25 | 93 | 1014.1 |
| 20260502211228 | 59 | 267 | 7.0 | 14.8 | 0.19 | 0.19 | 0.16 | 86 | 1014.5 |
| 20260502211019 | 60 | 232 | 7.0 | 14.8 | 0.07 | 0.07 | 0.04 | 81 | 1014.2 |
| 20260502210228 | 61 | 210 | 4.3 | 11.3 | 0.00 | 0.00 | 0.00 | 71 | 1014.0 |
| 20260502210007 | 60 | 107 | 4.3 | 7.0 | 0.00 | 0.00 | 0.00 | 67 | 1013.9 |
| 20260502205228 | 60 | 3 | 5.2 | 7.0 | 0.00 | 0.00 | 0.00 | 69 | 1012.4 |
| 20260502204728 | 60 | 4 | 5.2 | 7.0 | 0.00 | 0.00 | 0.00 | 69 | 1012.2 |
| 20260502204225 | 60 | 16 | 5.2 | 7.0 | 0.00 | 0.00 | 0.00 | 70 | 1012.3 |
| 20260502203727 | 60 | 19 | 5.2 | 7.8 | 0.00 | 0.00 | 0.00 | 70 | 1012.4 |
| 20260502203228 | 60 | 15 | 7.0 | 7.8 | 0.00 | 0.00 | 0.00 | 71 | 1012.5 |
| 20260502202725 | 60 | 14 | 7.0 | 7.8 | 0.00 | 0.00 | 0.00 | 69 | 1012.5 |
| 20260502202226 | 60 | 11 | 5.2 | 7.8 | 0.00 | 0.00 | 0.00 | 70 | 1012.5 |
| 20260502202015 | 60 | 4 | 5.2 | 7.0 | 0.00 | 0.00 | 0.00 | 71 | 1012.7 |
| 20260502201226 | 60 | 17 | 5.2 | 6.1 | 0.00 | 0.00 | 0.00 | 71 | 1012.7 |
| 20260502200726 | 60 | 12 | 4.3 | 6.1 | 0.00 | 0.00 | 0.00 | 71 | 1012.8 |
| 20260502200225 | 61 | 15 | 4.3 | 6.1 | 0.00 | 0.00 | 0.00 | 69 | 1012.9 |
| 20260502200022 | 61 | 6 | 4.3 | 5.2 | 0.00 | 0.00 | 0.00 | 69 | 1012.9 |
| 20260502195504 | 61 | 7 | 3.5 | 5.2 | 0.00 | 0.00 | 0.00 | 68 | 1013.0 |
| 20260502195004 | 61 | 19 | 3.5 | 5.2 | 0.00 | 0.00 | 0.00 | 69 | 1013.0 |
| 20260502194226 | 61 | 37 | 3.5 | 5.2 | 0.00 | 0.00 | 0.00 | 67 | 1013.0 |
| 20260502193726 | 61 | 18 | 2.6 | 4.3 | 0.00 | 0.00 | 0.00 | 68 | 1013.1 |
| 20260502193459 | 61 | 34 | 3.5 | 4.3 | 0.00 | 0.00 | 0.00 | 66 | 1013.1 |
| 20260502192721 | 61 | 26 | 3.5 | 4.3 | 0.00 | 0.00 | 0.00 | 66 | 1013.1 |
| 20260502192220 | 62 | 24 | 3.5 | 3.5 | 0.00 | 0.00 | 0.00 | 65 | 1013.1 |
| 20260502191718 | 62 | 358 | 3.5 | 4.3 | 0.00 | 0.00 | 0.00 | 62 | 1013.1 |
| 20260502191217 | 62 | 350 | 3.5 | 5.2 | 0.00 | 0.00 | 0.00 | 62 | 1013.2 |
| 20260502190718 | 62 | 351 | 3.5 | 5.2 | 0.00 | 0.00 | 0.00 | 63 | 1013.2 |
| 20260502190218 | 62 | 1 | 3.5 | 5.2 | 0.00 | 0.00 | 0.00 | 63 | 1013.2 |
| 20260502185720 | 62 | 355 | 3.5 | 5.2 | 0.00 | 0.00 | 0.00 | 62 | 1013.2 |
| 20260502185220 | 62 | 4 | 3.5 | 6.1 | 0.00 | 0.00 | 0.00 | 63 | 1013.3 |
| 20260502184719 | 63 | 3 | 4.3 | 7.0 | 0.00 | 0.00 | 0.00 | 60 | 1013.3 |
| 20260502184219 | 63 | 5 | 5.2 | 7.0 | 0.00 | 0.00 | 0.00 | 60 | 1013.2 |
| 20260502183719 | 63 | 329 | 4.3 | 7.0 | 0.00 | 0.00 | 0.00 | 62 | 1013.2 |
| 20260502183219 | 64 | 355 | 4.3 | 7.0 | 0.00 | 0.00 | 0.00 | 61 | 1013.3 |
| 20260502182719 | 64 | 354 | 4.3 | 7.8 | 0.00 | 0.00 | 0.00 | 63 | 1013.4 |
| 20260502182219 | 65 | 7 | 5.2 | 7.8 | 0.00 | 0.00 | 0.00 | 61 | 1013.4 |
| 20260502181719 | 65 | 353 | 5.2 | 8.7 | 0.00 | 0.00 | 0.00 | 60 | 1013.3 |
| 20260502181213 | 65 | 338 | 5.2 | 8.7 | 0.00 | 0.00 | 0.00 | 60 | 1013.3 |
| 20260502180713 | 65 | 9 | 5.2 | 8.7 | 0.00 | 0.00 | 0.00 | 61 | 1013.3 |
| 20260502180212 | 66 | 5 | 5.2 | 8.7 | 0.00 | 0.00 | 0.00 | 59 | 1013.2 |
| 20260502170204 | 69 | 341 | 7.8 | 11.3 | 0.00 | 0.00 | 0.00 | 56 | 1013.7 |
| 20260502164203 | 71 | 322 | 4.3 | 7.0 | 0.00 | 0.00 | 0.00 | 50 | 1014.0 |
| 20260502163704 | 72 | 296 | 4.3 | 7.8 | 0.00 | 0.00 | 0.00 | 49 | 1014.0 |
| 20260502163203 | 71 | 335 | 4.3 | 7.8 | 0.00 | 0.00 | 0.00 | 51 | 1014.1 |
| 20260502162703 | 71 | 339 | 4.3 | 7.8 | 0.00 | 0.00 | 0.00 | 51 | 1014.1 |
| 20260502162201 | 71 | 326 | 4.3 | 7.0 | 0.00 | 0.00 | 0.00 | 51 | 1014.2 |
| 20260502161942 | 71 | 290 | 3.5 | 7.0 | 0.00 | 0.00 | 0.00 | 50 | 1014.3 |
| 20260502161204 | 72 | 331 | 3.5 | 5.2 | 0.00 | 0.00 | 0.00 | 48 | 1014.4 |
| 20260502160702 | 72 | 295 | 3.5 | 5.2 | 0.00 | 0.00 | 0.00 | 47 | 1014.5 |
| 20260502160201 | 72 | 317 | 3.5 | 6.1 | 0.00 | 0.00 | 0.00 | 49 | 1014.5 |
| 20260502152200 | 73 | 214 | 3.5 | 7.8 | 0.00 | 0.00 | 0.00 | 48 | 1014.9 |
| 20260502151701 | 74 | 359 | 2.6 | 5.2 | 0.00 | 0.00 | 0.00 | 46 | 1015.0 |
| 20260502151200 | 72 | 171 | 3.5 | 7.0 | 0.00 | 0.00 | 0.00 | 47 | 1015.0 |
| 20260502150702 | 71 | 170 | 4.3 | 7.0 | 0.00 | 0.00 | 0.00 | 50 | 1015.1 |
| 20260502150157 | 72 | 315 | 3.5 | 7.8 | 0.00 | 0.00 | 0.00 | 52 | 1015.1 |
| 20260502130650 | 72 | 194 | 3.5 | 7.0 | 0.00 | 0.00 | 0.00 | 59 | 1016.5 |
| 20260502130145 | 72 | 279 | 4.3 | 8.7 | 0.00 | 0.00 | 0.00 | 59 | 1016.5 |
| 20260502123642 | 71 | 184 | 3.5 | 9.6 | 0.00 | 0.00 | 0.00 | 58 | 1016.6 |
| 20260502123141 | 71 | 184 | 3.5 | 9.6 | 0.00 | 0.00 | 0.00 | 61 | 1016.7 |
| 20260502122641 | 71 | 275 | 3.5 | 7.0 | 0.00 | 0.00 | 0.00 | 61 | 1016.8 |
| 20260502122142 | 70 | 293 | 3.5 | 9.6 | 0.00 | 0.00 | 0.00 | 61 | 1016.9 |
| 20260502121642 | 70 | 255 | 4.3 | 9.6 | 0.00 | 0.00 | 0.00 | 62 | 1016.9 |
| 20260502121142 | 70 | 211 | 3.5 | 9.6 | 0.00 | 0.00 | 0.00 | 63 | 1016.9 |
| 20260502120643 | 70 | 143 | 3.5 | 7.8 | 0.00 | 0.00 | 0.00 | 64 | 1017.0 |
| 20260502120142 | 70 | 246 | 3.5 | 7.8 | 0.00 | 0.00 | 0.00 | 63 | 1017.0 |
| 20260502115925 | 70 | 296 | 4.3 | 9.6 | 0.00 | 0.00 | 0.00 | 63 | 1017.0 |
| 20260502115217 | 71 | 235 | 5.2 | 9.6 | 0.00 | 0.00 | 0.00 | 61 | 1017.1 |
| 20260502115210 | 70 | 219 | 4.3 | 9.6 | 0.00 | 0.00 | 0.00 | 63 | 1017.0 |
| 20260502114146 | 71 | 225 | 4.3 | 9.6 | 0.00 | 0.00 | 0.00 | 61 | 1017.0 |
| 20260502113642 | 71 | 172 | 3.5 | 7.0 | 0.00 | 0.00 | 0.00 | 61 | 1017.2 |
| 20260502113410 | 70 | 218 | 3.5 | 9.6 | 0.00 | 0.00 | 0.00 | 62 | 1017.2 |
| 20260502112641 | 70 | 141 | 3.5 | 9.6 | 0.00 | 0.00 | 0.00 | 63 | 1017.2 |
| 20260502112137 | 70 | 199 | 3.5 | 7.8 | 0.00 | 0.00 | 0.00 | 63 | 1017.3 |
| 20260502111908 | 70 | 193 | 3.5 | 7.8 | 0.00 | 0.00 | 0.00 | 63 | 1017.3 |
| 20260502111137 | 69 | 274 | 4.3 | 7.8 | 0.00 | 0.00 | 0.00 | 63 | 1017.3 |
| 20260502110638 | 69 | 209 | 5.2 | 9.6 | 0.00 | 0.00 | 0.00 | 65 | 1017.3 |
| 20260502110134 | 68 | 175 | 4.3 | 9.6 | 0.00 | 0.00 | 0.00 | 66 | 1017.4 |
| 20260502105635 | 68 | 161 | 4.3 | 12.2 | 0.00 | 0.00 | 0.00 | 66 | 1017.4 |
| 20260502105135 | 68 | 216 | 5.2 | 12.2 | 0.00 | 0.00 | 0.00 | 68 | 1017.4 |
| 20260502104635 | 68 | 213 | 3.5 | 7.8 | 0.00 | 0.00 | 0.00 | 67 | 1017.5 |
| 20260502104134 | 68 | 219 | 4.3 | 7.8 | 0.00 | 0.00 | 0.00 | 66 | 1017.5 |
| 20260502103634 | 68 | 149 | 4.3 | 7.8 | 0.00 | 0.00 | 0.00 | 67 | 1017.4 |
| 20260502103135 | 69 | 133 | 3.5 | 7.8 | 0.00 | 0.00 | 0.00 | 65 | 1017.6 |
| 20260502102911 | 69 | 183 | 3.5 | 7.8 | 0.00 | 0.00 | 0.00 | 63 | 1017.5 |
| 20260502102146 | 69 | 181 | 4.3 | 9.6 | 0.00 | 0.00 | 0.00 | 62 | 1017.5 |
| 20260502102139 | 69 | 208 | 4.3 | 8.7 | 0.00 | 0.00 | 0.00 | 63 | 1017.5 |
| 20260502101135 | 69 | 232 | 4.3 | 9.6 | 0.00 | 0.00 | 0.00 | 63 | 1017.6 |
| 20260502100635 | 69 | 179 | 3.5 | 10.4 | 0.00 | 0.00 | 0.00 | 63 | 1017.6 |
| 20260502100135 | 69 | 205 | 4.3 | 10.4 | 0.00 | 0.00 | 0.00 | 62 | 1017.7 |
| 20260502091131 | 67 | 289 | 2.6 | 6.1 | 0.00 | 0.00 | 0.00 | 68 | 1017.9 |
| 20260502090631 | 66 | 172 | 3.5 | 7.0 | 0.00 | 0.00 | 0.00 | 70 | 1017.9 |
| 20260502090423 | 64 | 220 | 3.5 | 8.7 | 0.00 | 0.00 | 0.00 | 73 | 1018.0 |
| 20260502090144 | 65 | 189 | 3.5 | 7.0 | 0.00 | 0.00 | 0.00 | 71 | 1017.9 |
| 20260502071351 | 58 | 20 | 1.7 | 3.5 | 0.00 | 0.00 | 0.00 | 73 | 1017.5 |
| 20260502070617 | 58 | 23 | 1.7 | 4.3 | 0.00 | 0.00 | 0.00 | 72 | 1017.6 |
| 20260502070116 | 58 | 220 | 1.7 | 4.3 | 0.00 | 0.00 | 0.00 | 72 | 1017.6 |
| 20260502065614 | 58 | 346 | 0.9 | 3.5 | 0.00 | 0.00 | 0.00 | 71 | 1017.6 |
| 20260502065114 | 58 | 229 | 1.7 | 3.5 | 0.00 | 0.00 | 0.00 | 70 | 1017.8 |
| 20260502064614 | 58 | 245 | 1.7 | 4.3 | 0.00 | 0.00 | 0.00 | 68 | 1017.9 |
| 20260502064116 | 57 | 179 | 2.6 | 5.2 | 0.00 | 0.00 | 0.00 | 65 | 1017.9 |
| 20260502063612 | 57 | 218 | 2.6 | 5.2 | 0.00 | 0.05 | 0.00 | 62 | 1018.0 |
| 20260502063349 | 57 | 163 | 2.6 | 5.2 | 0.00 | 0.06 | 0.00 | 61 | 1017.9 |
| 20260502062612 | 57 | 161 | 1.7 | 5.2 | 0.00 | 0.09 | 0.00 | 60 | 1018.0 |
| 20260502062108 | 57 | 160 | 1.7 | 4.3 | 0.00 | 0.17 | 0.00 | 59 | 1017.9 |
| 20260502061615 | 57 | 201 | 1.7 | 4.3 | 0.00 | 0.17 | 0.00 | 59 | 1017.9 |
| 20260502061608 | 57 | 174 | 1.7 | 4.3 | 0.00 | 0.17 | 0.00 | 59 | 1017.9 |
| 20260502060608 | 56 | 173 | 1.7 | 3.5 | 0.00 | 0.17 | 0.00 | 60 | 1017.9 |
| 20260502060110 | 56 | 192 | 1.7 | 3.5 | 0.00 | 0.17 | 0.00 | 60 | 1017.8 |
| 20260502055902 | 56 | 172 | 1.7 | 2.6 | 0.00 | 0.17 | 0.00 | 59 | 1017.8 |
| 20260502055405 | 56 | 183 | 1.7 | 3.5 | 0.00 | 0.17 | 0.00 | 60 | 1017.8 |
| 20260502054630 | 56 | 170 | 1.7 | 4.3 | 0.00 | 0.17 | 0.00 | 59 | 1017.9 |
| 20260502054622 | 56 | 169 | 1.7 | 3.5 | 0.00 | 0.17 | 0.00 | 59 | 1017.9 |
| 20260502053610 | 56 | 162 | 1.7 | 4.3 | 0.00 | 0.17 | 0.00 | 59 | 1017.8 |
| 20260502053109 | 56 | 175 | 1.7 | 4.3 | 0.00 | 0.17 | 0.00 | 59 | 1017.9 |
| 20260502052609 | 56 | 191 | 1.7 | 3.5 | 0.00 | 0.17 | 0.00 | 59 | 1017.8 |
| 20260502052350 | 56 | 188 | 1.7 | 3.5 | 0.00 | 0.17 | 0.00 | 59 | 1017.6 |
| 20260502051851 | 55 | 196 | 1.7 | 4.3 | 0.00 | 0.17 | 0.00 | 59 | 1017.7 |
| 20260502051404 | 55 | 191 | 1.7 | 4.3 | 0.00 | 0.17 | 0.00 | 60 | 1017.7 |
| 20260502050607 | 55 | 192 | 1.7 | 5.2 | 0.00 | 0.17 | 0.00 | 59 | 1017.7 |
| 20260502050106 | 55 | 322 | 1.7 | 5.2 | 0.00 | 0.17 | 0.00 | 58 | 1017.6 |
| 20260502045607 | 55 | 230 | 2.6 | 5.2 | 0.00 | 0.17 | 0.00 | 58 | 1017.7 |
| 20260502045104 | 55 | 165 | 2.6 | 6.1 | 0.00 | 0.17 | 0.00 | 57 | 1017.7 |
| 20260502044604 | 56 | 163 | 2.6 | 6.1 | 0.00 | 0.17 | 0.00 | 56 | 1017.7 |
| 20260502044414 | 55 | 193 | 1.7 | 4.3 | 0.00 | 0.17 | 0.00 | 55 | 1017.5 |
| 20260502044124 | 55 | 158 | 1.7 | 3.5 | 0.00 | 0.17 | 0.00 | 55 | 1017.5 |
| 20260502043104 | 55 | 156 | 2.6 | 4.3 | 0.00 | 0.17 | 0.00 | 56 | 1017.5 |
| 20260502042604 | 54 | 135 | 1.7 | 4.3 | 0.00 | 0.17 | 0.00 | 58 | 1017.6 |
| 20260502042104 | 54 | 153 | 1.7 | 2.6 | 0.00 | 0.17 | 0.00 | 57 | 1017.6 |
| 20260502041604 | 54 | 144 | 1.7 | 3.5 | 0.00 | 0.17 | 0.00 | 57 | 1017.5 |
| 20260502041104 | 54 | 0 | 1.7 | 3.5 | 0.00 | 0.17 | 0.00 | 57 | 1017.6 |
| 20260502040603 | 54 | 194 | 2.6 | 5.2 | 0.00 | 0.17 | 0.00 | 56 | 1017.6 |
| 20260502040405 | 54 | 181 | 2.6 | 5.2 | 0.00 | 0.17 | 0.00 | 57 | 1017.6 |